Weather History for Henderson, TX

Change the Weather History Date:

Thursday, July 11, 2013

  Actual Average (KGGG) Record (KGGG)
Temperature  
Mean Temperature 88 °F 83 °F  
Max Temperature 98 °F 93 °F 105 °F (1933)
Min Temperature 77 °F 74 °F 62 °F (1920)
Degree Days  
Heating Degree Days 0 0  
Month to date heating degree days 0  
Since 1 June heating degree days 0  
Since 1 July heating degree days 0  
Cooling Degree Days 22 18  
Month to date cooling degree days 197  
Year to date cooling degree days 1015  
Since 1 June cooling degree days 636  
Growing Degree Days 38 (Base 50)    
Moisture  
Dew Point 67 °F    
Average Humidity 60    
Maximum Humidity 76    
Minimum Humidity 31    
Precipitation  
Precipitation 0.00 in 0.11 in 3.00 in (1945)
Month to date precipitation 1.32  
Year to date precipitation 26.06  
Snow  
Snow 0.00 in - - ()
Month to date snowfall  
Since 1 June snowfall  
Since 1 July snowfall  
Snow Depth -    
Sea Level Pressure  
Sea Level Pressure 29.98 in    
Wind  
Wind Speed 3 mph (SW)    
Max Wind Speed 13 mph    
Max Gust Speed 23 mph    
Visibility 10 miles    
Events      
T = Trace of Precipitation, MM = Missing Value Source: NWS Daily Summary

Daily Weather History Graph

Daily Weather History Graph

Search for Another Location

Airport:

Trip Planner

Search our weather history database for the weather conditions in past years. The results will help you decide how hot, cold, wet, or windy it might be!

Date:

Astronomy

Jul. 11, 2013 Rise Set
Actual Time 6:21 AM CDT 8:28 PM CDT
Civil Twilight 5:53 AM CDT 8:55 PM CDT
Nautical Twilight 5:19 AM CDT 9:29 PM CDT
Astronomical Twilight 4:43 AM CDT 10:06 PM CDT
Moon 9:26 AM CDT (7/11) 10:25 PM CDT (7/11)
Length of Visible Light 15h 02m
Length of Day
14h 06m
Waxing Crescent, 11% of the Moon is Illuminated
Jul 11
Waxing Crescent
Jul 15
First Quarter
Jul 22
Full
Jul 29
Last Quarter
Aug 6
New

Hourly Weather History & Observations

Time (CDT) Temp. Heat Index Dew Point Humidity Pressure Visibility Wind Dir Wind Speed Gust Speed Precip Events Conditions
12:15 AM 83.5 °F 85.7 °F 66.2 °F 56% 29.98 in 10.0 mi Calm Calm - N/A   Clear
12:35 AM 83.3 °F 85.7 °F 66.7 °F 57% 29.98 in 10.0 mi South 3.5 mph - N/A   Clear
12:55 AM 82.8 °F 85.3 °F 67.1 °F 59% 29.98 in 10.0 mi SSW 3.5 mph - N/A   Clear
1:15 AM 82.4 °F 85.0 °F 67.5 °F 60% 29.99 in 10.0 mi Calm Calm - N/A   Clear
1:35 AM 82.0 °F 84.9 °F 68.0 °F 62% 30.00 in 10.0 mi South 3.5 mph - N/A   Clear
1:55 AM 81.5 °F 84.4 °F 68.2 °F 64% 30.00 in 10.0 mi Calm Calm - N/A   Clear
2:15 AM 81.0 °F 83.8 °F 68.4 °F 65% 30.00 in 10.0 mi South 3.5 mph - N/A   Clear
2:35 AM 80.8 °F 83.8 °F 68.9 °F 67% 30.00 in 10.0 mi Calm Calm - N/A   Clear
2:55 AM 80.6 °F 83.5 °F 68.9 °F 67% 30.00 in 10.0 mi South 3.5 mph - N/A   Clear
3:15 AM 79.9 °F - 68.9 °F 69% 29.99 in 10.0 mi Calm Calm - N/A   Clear
3:35 AM 79.7 °F - 68.9 °F 69% 29.99 in 10.0 mi Calm Calm - N/A   Clear
3:55 AM 79.2 °F - 68.9 °F 71% 29.99 in 10.0 mi Calm Calm - N/A   Clear
4:15 AM 79.2 °F - 69.1 °F 71% 29.99 in 10.0 mi Calm Calm - N/A   Clear
4:35 AM 79.2 °F - 68.9 °F 71% 29.99 in 10.0 mi Calm Calm - N/A   Clear
4:55 AM 79.0 °F - 68.9 °F 71% 29.98 in 10.0 mi Calm Calm - N/A   Clear
5:15 AM 79.0 °F - 68.9 °F 71% 29.98 in 10.0 mi SW 3.5 mph - N/A   Clear
5:35 AM 78.8 °F - 68.4 °F 70% 29.98 in 10.0 mi SSW 3.5 mph - N/A   Clear
5:55 AM 78.8 °F - 68.2 °F 70% 29.99 in 10.0 mi Calm Calm - N/A   Clear
6:15 AM 78.3 °F - 68.2 °F 71% 29.99 in 10.0 mi SW 3.5 mph - N/A   Clear
6:35 AM 78.1 °F - 68.2 °F 71% 30.00 in 10.0 mi Calm Calm - N/A   Clear
6:55 AM 78.3 °F - 68.4 °F 71% 30.00 in 10.0 mi Calm Calm - N/A   Clear
7:15 AM 78.8 °F - 68.4 °F 70% 30.00 in 10.0 mi Calm Calm - N/A   Clear
7:35 AM 78.8 °F - 68.4 °F 70% 30.00 in 10.0 mi Calm Calm - N/A   Clear
7:55 AM 79.3 °F - 68.5 °F 69% 30.00 in 10.0 mi SSW 3.5 mph - N/A   Scattered Clouds
8:15 AM 80.1 °F 82.8 °F 68.5 °F 68% 30.00 in 10.0 mi SSW 3.5 mph - N/A   Scattered Clouds
8:35 AM 81.7 °F 84.5 °F 68.0 °F 63% 30.00 in 10.0 mi SW 5.8 mph - N/A   Scattered Clouds
8:55 AM 83.5 °F 86.2 °F 67.3 °F 58% 30.01 in 10.0 mi SW 8.1 mph - N/A   Scattered Clouds
9:15 AM 84.2 °F 87.1 °F 67.3 °F 57% 30.00 in 10.0 mi WSW 8.1 mph - N/A   Clear
9:35 AM 85.5 °F 88.2 °F 66.9 °F 54% 30.00 in 10.0 mi SW 6.9 mph - N/A   Clear
9:55 AM 86.7 °F 89.0 °F 66.2 °F 50% 30.00 in 10.0 mi West 10.4 mph - N/A   Clear
10:15 AM 87.1 °F 89.2 °F 65.8 °F 49% 30.00 in 10.0 mi West 5.8 mph - N/A   Clear
10:35 AM 89.1 °F 91.3 °F 65.7 °F 46% 30.00 in 10.0 mi West 8.1 mph - N/A   Clear
10:55 AM 90.9 °F 92.7 °F 64.8 °F 42% 30.00 in 10.0 mi WNW 4.6 mph - N/A   Scattered Clouds
11:15 AM 91.4 °F 92.8 °F 64.2 °F 40% 30.00 in 10.0 mi SSW 3.5 mph - N/A   Scattered Clouds
11:35 AM 92.8 °F 94.3 °F 64.0 °F 38% 30.00 in 10.0 mi West 4.6 mph - N/A   Clear
11:55 AM 94.1 °F 95.9 °F 64.4 °F 37% 30.00 in 10.0 mi South 3.5 mph - N/A   Clear
12:15 PM 93.2 °F 94.9 °F 63.9 °F 38% 30.00 in 10.0 mi SSW 5.8 mph - N/A   Clear
12:35 PM 94.8 °F 96.2 °F 63.5 °F 35% 30.00 in 10.0 mi WNW 3.5 mph - N/A   Clear
12:55 PM 95.7 °F 97.2 °F 62.8 °F 34% 29.99 in 10.0 mi NNW 3.5 mph - N/A   Clear
1:15 PM 95.4 °F 96.6 °F 62.6 °F 34% 29.98 in 10.0 mi West 4.6 mph - N/A   Clear
1:35 PM 98.2 °F 99.9 °F 63.0 °F 31% 29.97 in 10.0 mi WSW 9.2 mph - N/A   Clear
1:55 PM 96.6 °F 97.3 °F 61.5 °F 31% 29.96 in 10.0 mi Calm Calm - N/A   Clear
2:15 PM 95.7 °F 96.3 °F 61.5 °F 32% 29.94 in 10.0 mi Calm Calm - N/A   Mostly Cloudy
2:35 PM 92.8 °F 95.6 °F 65.8 °F 41% 29.94 in 10.0 mi NW 10.4 mph 17.3 mph N/A   Overcast
2:55 PM 87.3 °F 90.5 °F 67.8 °F 52% 29.95 in 10.0 mi West 12.7 mph 23.0 mph N/A   Scattered Clouds
3:15 PM 85.6 °F 87.9 °F 66.2 °F 52% 29.96 in 10.0 mi West 9.2 mph - N/A   Clear
3:35 PM 83.8 °F 85.3 °F 64.6 °F 52% 29.97 in 10.0 mi West 6.9 mph - N/A   Scattered Clouds
3:55 PM 82.9 °F 85.0 °F 66.0 °F 56% 29.98 in 10.0 mi SSW 5.8 mph - N/A   Scattered Clouds
4:15 PM 80.6 °F 83.1 °F 67.5 °F 64% 29.98 in 10.0 mi South 9.2 mph - N/A   Mostly Cloudy
4:35 PM 79.5 °F - 67.5 °F 66% 29.96 in 10.0 mi SSE 4.6 mph - N/A   Scattered Clouds
4:55 PM 79.0 °F - 68.4 °F 70% 29.96 in 10.0 mi Calm Calm - N/A   Clear
5:15 PM 80.1 °F 82.7 °F 68.0 °F 67% 29.95 in 10.0 mi SW 3.5 mph - N/A   Clear
5:35 PM 80.4 °F 83.1 °F 68.0 °F 66% 29.95 in 10.0 mi SW 8.1 mph - N/A   Clear
5:55 PM 79.9 °F - 69.1 °F 69% 29.95 in 10.0 mi SSW 4.6 mph - N/A   Clear
6:15 PM 81.9 °F 84.6 °F 67.6 °F 62% 29.93 in 10.0 mi South 3.5 mph - N/A   Clear
6:35 PM 81.7 °F 84.2 °F 67.1 °F 61% 29.95 in 10.0 mi Calm Calm - N/A   Clear
6:55 PM 81.7 °F 84.3 °F 67.5 °F 62% 29.95 in 10.0 mi Calm Calm - N/A   Clear
7:15 PM 81.5 °F 84.1 °F 67.5 °F 62% 29.95 in 10.0 mi Calm Calm - N/A   Clear
7:35 PM 81.5 °F 83.9 °F 67.1 °F 61% 29.97 in 10.0 mi North 4.6 mph - N/A   Clear
7:55 PM 81.9 °F 84.8 °F 68.0 °F 63% 29.96 in 10.0 mi NE 3.5 mph - N/A   Clear
8:15 PM 81.9 °F 84.6 °F 67.5 °F 62% 29.96 in 10.0 mi Calm Calm - N/A   Clear
8:35 PM 80.6 °F 83.2 °F 67.6 °F 65% 29.94 in 10.0 mi Calm Calm - N/A   Clear
8:55 PM 79.9 °F - 67.3 °F 65% 29.93 in 10.0 mi SSW 3.5 mph - N/A   Clear
9:15 PM 79.3 °F - 67.6 °F 67% 29.93 in 10.0 mi Calm Calm - N/A   Clear
9:35 PM 79.3 °F - 68.2 °F 69% 29.93 in 10.0 mi Calm Calm - N/A   Light Drizzle
10:35 PM 78.1 °F - 68.9 °F 73% 29.95 in 10.0 mi Calm Calm - N/A   Clear
10:55 PM 77.7 °F - 69.3 °F 75% 29.96 in 10.0 mi Calm Calm - N/A   Clear
11:15 PM 77.4 °F - 69.3 °F 76% 29.97 in 10.0 mi ESE 5.8 mph - N/A   Clear
11:35 PM 77.9 °F - 68.9 °F 74% 29.96 in 10.0 mi Calm Calm - N/A   Clear
11:55 PM 77.2 °F - 68.9 °F 76% 29.96 in 10.0 mi Calm Calm - N/A   Clear